Location: Crescent
(42.8242°N, 73.7329°W)
Time: 12:44:24
(UTC+00:00)

Vanguard 3 - Pass Details

Date: 20 February 2026
Orbit: 507 x 3205 km, 33.4° (Epoch: 8 March)

Event Time Altitude Azimuth Distance (km) Brightness Sun altitude
Rises 23:41:21 0° 265° (W) 4,552 13.1 -13.2°
Reaches altitude 10° 23:45:26 10° 255° (WSW) 3,097 11.5 -13.9°
Maximum altitude 23:51:17 28° 200° (SSW) 1,531 8.8 -15.0°
Enters shadow 23:55:05 11° 142° (SE) 2,007 8.8 -15.7°
